FW2442 Weather Reports


Display with metric or nautical units.
time (UTC)temp
F
wind
direction
speed
MPH
gust
MPH
rain 1hr
in
rain 24hr
in
rain mn
in
humidity
%
barometer
mb
20260831152522 88 120 17.0 29.0 0.00 0.00 0.00 36 1014.1
20260831151516 88 127 15.0 29.0 0.00 0.00 0.00 36 1014.0
20260831150521 88 126 16.0 24.0 0.00 0.00 0.00 36 1013.9
20260831145516 89 134 15.0 28.0 0.00 0.00 0.00 36 1014.0
20260831144520 89 126 14.0 30.0 0.00 0.00 0.00 36 1014.0
20260831143556 89 135 15.0 25.0 0.00 0.00 0.00 37 1014.1
20260831142519 89 115 14.0 23.0 0.00 0.00 0.00 35 1014.2
20260831141517 90 148 16.0 28.0 0.00 0.00 0.00 37 1014.2
20260831140518 90 140 13.0 19.0 0.00 0.00 0.00 36 1014.1
20260831135518 90 129 12.0 23.0 0.00 0.00 0.00 36 1014.1
20260831134522 90 118 15.0 22.0 0.00 0.00 0.00 37 1014.2
20260831133522 90 136 12.0 19.0 0.00 0.00 0.00 37 1014.4
20260831132520 90 133 15.0 26.0 0.00 0.00 0.00 37 1014.4
20260831131537 90 122 10.0 17.0 0.00 0.00 0.00 37 1014.4
20260831130541 90 123 11.0 32.0 0.00 0.00 0.00 38 1014.5
20260831125517 90 109 13.0 21.0 0.00 0.00 0.00 38 1014.5
20260831124521 90 138 12.0 28.0 0.00 0.00 0.00 38 1014.7
20260831123517 90 141 11.0 16.0 0.00 0.00 0.00 39 1014.7
20260831122522 90 116 11.0 21.0 0.00 0.00 0.00 39 1014.7
20260831121522 89 125 13.0 22.0 0.00 0.00 0.00 39 1015.0
20260831120542 89 153 13.0 28.0 0.00 0.00 0.00 40 1015.0
20260831115518 89 150 13.0 23.0 0.00 0.00 0.00 41 1015.1
20260831114518 88 115 21.0 30.0 0.00 0.00 0.00 40 1015.2
20260831113518 88 112 18.0 28.0 0.00 0.00 0.00 40 1015.2
20260831112521 89 146 14.0 21.0 0.00 0.00 0.00 41 1015.2
20260831111517 88 147 14.0 34.0 0.00 0.00 0.00 41 1015.3
20260831110541 88 148 22.0 41.0 0.00 0.00 0.00 41 1015.4
20260831105520 88 132 20.0 42.0 0.00 0.00 0.00 41 1015.5
20260831104521 88 117 16.0 30.0 0.00 0.00 0.00 41 1015.6
20260831103536 88 140 18.0 32.0 0.00 0.00 0.00 41 1015.7
20260831102522 87 135 16.0 32.0 0.00 0.00 0.00 42 1015.8
20260831101516 87 151 18.0 34.0 0.00 0.00 0.00 42 1015.9
20260831100520 86 119 19.0 34.0 0.00 0.00 0.00 42 1016.0
20260831095559 86 118 22.0 34.0 0.00 0.00 0.00 42 1016.0
20260831094520 86 115 16.0 32.0 0.00 0.00 0.00 42 1016.0
20260831093519 85 135 18.0 24.0 0.00 0.00 0.00 43 1016.1
20260831092522 85 124 23.0 31.0 0.00 0.00 0.00 43 1016.2
20260831091522 85 126 14.0 27.0 0.00 0.00 0.00 43 1016.1
20260831090520 85 155 19.0 42.0 0.00 0.00 0.00 44 1016.4
20260831085521 84 127 16.0 28.0 0.00 0.00 0.00 44 1016.5
20260831084521 84 137 20.0 30.0 0.00 0.00 0.00 44 1016.6
20260831083517 84 145 16.0 27.0 0.00 0.00 0.00 45 1016.7
20260831082521 83 127 17.0 31.0 0.00 0.00 0.00 45 1016.7
20260831081538 82 154 17.0 26.0 0.00 0.00 0.00 46 1016.8
20260831080558 82 159 16.0 28.0 0.00 0.00 0.00 47 1016.8
20260831075517 81 108 16.0 27.0 0.00 0.00 0.00 49 1016.8
20260831074522 80 126 16.0 28.0 0.00 0.00 0.00 50 1016.8
20260831073522 79 115 12.0 20.0 0.00 0.00 0.00 51 1016.8
20260831072542 79 113 12.0 21.0 0.00 0.00 0.00 51 1016.9
20260831071522 78 117 17.0 26.0 0.00 0.00 0.00 51 1016.9
20260831070521 78 121 17.0 33.0 0.00 0.00 0.00 51 1016.8
20260831065521 77 111 16.0 26.0 0.00 0.00 0.00 53 1016.8
20260831064518 76 120 15.0 22.0 0.00 0.00 0.00 54 1016.8
20260831063517 76 112 13.0 24.0 0.00 0.00 0.00 55 1016.9
20260831062539 75 117 16.0 31.0 0.00 0.00 0.00 55 1016.9
20260831061520 75 118 11.0 19.0 0.00 0.00 0.00 57 1016.9
20260831060542 74 121 11.0 26.0 0.00 0.00 0.00 59 1017.0
20260831055522 73 113 10.0 15.0 0.00 0.00 0.00 62 1017.0
20260831054518 71 85 13.0 30.0 0.00 0.00 0.00 63 1017.0
20260831053520 71 108 12.0 18.0 0.00 0.00 0.00 64 1017.0
20260831052518 71 119 4.0 10.0 0.00 0.00 0.00 66 1017.0
20260831051518 70 106 6.0 12.0 0.00 0.00 0.00 67 1017.0
20260831050521 69 113 7.0 11.0 0.00 0.00 0.00 66 1017.0
20260831045518 68 19 2.0 7.0 0.00 0.00 0.00 67 1017.0
20260831044522 68 188 5.0 9.0 0.00 0.00 0.00 65 1017.0
20260831043540 69 146 6.0 9.0 0.00 0.00 0.00 64 1016.9
20260831042521 68 135 7.0 11.0 0.00 0.00 0.00 63 1016.8
20260831041520 68 110 3.0 8.0 0.00 0.00 0.00 64 1016.8
20260831040518 68 190 5.0 10.0 0.00 0.00 0.00 64 1016.8
20260831035517 67 118 8.0 11.0 0.00 0.00 0.00 63 1016.8
20260831034521 68 125 7.0 11.0 0.00 0.00 0.00 62 1016.8
20260831033521 68 116 13.0 18.0 0.00 0.00 0.00 62 1016.8
20260831032521 68 106 12.0 17.0 0.00 0.00 0.00 62 1016.8
20260831030520 68 119 14.0 19.0 0.00 0.00 0.00 62 1016.7
20260831025516 68 95 9.0 13.0 0.00 0.00 0.00 62 1016.6
20260831024520 68 112 8.0 13.0 0.00 0.00 0.00 63 1016.7
20260831023518 68 113 6.0 11.0 0.00 0.00 0.00 63 1016.7
20260831022522 68 126 10.0 14.0 0.00 0.00 0.00 62 1016.6
20260831021522 68 126 9.0 18.0 0.00 0.00 0.00 63 1016.8
20260831020521 68 80 7.0 12.0 0.00 0.00 0.00 64 1016.8
20260831015517 68 119 5.0 9.0 0.00 0.00 0.00 63 1016.8
20260831014541 68 155 3.0 12.0 0.00 0.00 0.00 63 1016.9
20260831013517 69 136 6.0 11.0 0.00 0.01 0.00 63 1016.9
20260831012521 69 128 12.0 20.0 0.00 0.01 0.00 62 1017.0
20260831011517 69 54 9.0 14.0 0.00 0.01 0.00 63 1017.0
20260831010521 69 118 8.0 14.0 0.00 0.01 0.00 63 1017.0
20260831005537 69 108 8.0 14.0 0.00 0.01 0.00 63 1016.9
20260831004521 70 128 9.0 12.0 0.00 0.01 0.00 62 1017.0
20260831003517 70 131 10.0 17.0 0.00 0.01 0.00 63 1017.0
20260831002601 69 123 11.0 17.0 0.00 0.01 0.00 64 1017.1
20260831001517 69 117 9.0 13.0 0.00 0.01 0.00 64 1017.1
20260831000521 70 117 10.0 13.0 0.00 0.01 0.00 63 1017.1
20260830235519 70 124 11.0 16.0 0.00 0.01 0.00 64 1017.0
20260830234537 70 113 10.0 16.0 0.00 0.01 0.00 64 1017.1
20260830233537 70 108 10.0 13.0 0.00 0.01 0.00 64 1017.1
20260830232541 70 116 12.0 16.0 0.00 0.01 0.00 64 1017.1
20260830231522 69 109 11.0 19.0 0.00 0.01 0.00 65 1017.1
20260830230522 70 110 14.0 35.0 0.00 0.01 0.00 65 1017.1
20260830225542 70 112 10.0 16.0 0.00 0.01 0.00 66 1017.1
20260830224520 70 108 14.0 17.0 0.00 0.01 0.00 66 1017.0
20260830223520 70 110 13.0 17.0 0.00 0.01 0.00 66 1017.1
20260830222518 70 118 7.0 11.0 0.00 0.01 0.00 67 1017.2
20260830221556 70 108 11.0 19.0 0.00 0.01 0.00 67 1017.2
20260830220518 70 103 10.0 14.0 0.00 0.01 0.00 66 1017.1
20260830215516 70 106 13.0 19.0 0.00 0.01 0.00 66 1017.1
20260830214540 70 106 8.0 12.0 0.00 0.01 0.00 66 1017.1
20260830213536 70 127 3.0 9.0 0.00 0.01 0.00 65 1017.1
20260830212522 71 129 6.0 15.0 0.00 0.01 0.00 64 1017.0
20260830211522 72 108 5.0 9.0 0.00 0.01 0.00 64 1016.9
20260830210520 72 112 10.0 12.0 0.00 0.01 0.00 62 1016.8
20260830205522 72 109 9.0 13.0 0.00 0.01 0.01 62 1016.7
20260830204521 73 104 12.0 17.0 0.00 0.01 0.01 61 1016.8
20260830203521 73 106 12.0 18.0 0.00 0.01 0.01 61 1016.8
20260830202521 73 108 9.0 11.0 0.00 0.01 0.01 61 1016.7
20260830201517 73 96 9.0 12.0 0.00 0.01 0.01 61 1016.7
20260830200521 72 104 7.0 9.0 0.00 0.01 0.01 62 1016.6
20260830195522 72 116 4.0 5.0 0.00 0.01 0.01 62 1016.5
20260830194519 73 110 0.0 4.0 0.00 0.01 0.01 62 1016.6
20260830193517 73 0.0 0.0 0.00 0.01 0.01 61 1016.5
20260830192522 73 121 6.0 9.0 0.00 0.01 0.01 61 1016.5
20260830191521 74 126 4.0 7.0 0.00 0.01 0.01 61 1016.5
20260830190520 74 119 6.0 9.0 0.00 0.01 0.01 60 1016.5
20260830185520 75 112 9.0 13.0 0.00 0.01 0.01 59 1016.5
20260830184522 75 112 6.0 9.0 0.00 0.01 0.01 58 1016.5
20260830183517 76 128 7.0 14.0 0.00 0.01 0.01 57 1016.4
20260830182519 76 132 8.0 12.0 0.00 0.01 0.01 57 1016.3
20260830181520 76 121 10.0 15.0 0.00 0.01 0.01 57 1016.3
20260830180601 76 122 8.0 12.0 0.00 0.01 0.01 58 1016.2
20260830175520 76 121 7.0 10.0 0.00 0.01 0.01 58 1016.0
20260830174520 77 126 8.0 12.0 0.00 0.01 0.01 58 1016.1
20260830173521 77 120 7.0 9.0 0.00 0.01 0.01 59 1016.0
20260830172540 77 121 9.0 14.0 0.00 0.01 0.01 58 1015.8
20260830171521 78 125 8.0 11.0 0.00 0.01 0.01 58 1015.8
20260830170520 79 120 10.0 15.0 0.00 0.01 0.01 57 1015.7
20260830165540 79 110 11.0 17.0 0.00 0.01 0.01 56 1015.5
20260830164520 80 109 11.0 15.0 0.00 0.01 0.01 55 1015.5
20260830163520 80 103 10.0 15.0 0.00 0.01 0.01 55 1015.5
20260830162541 80 109 7.0 10.0 0.00 0.01 0.01 55 1015.4
20260830161519 81 117 6.0 12.0 0.00 0.01 0.01 54 1015.4
20260830160521 81 118 7.0 11.0 0.00 0.01 0.01 53 1015.4
20260830155520 81 110 6.0 9.0 0.00 0.01 0.01 53 1015.5
20260830154521 81 121 8.0 14.0 0.00 0.01 0.01 52 1015.5
20260830153520 82 128 10.0 15.0 0.00 0.01 0.01 52 1015.5